When you browse on this site, cookies collect data to enhance your experience and personalize the content and advertising you see.
Visit our Privacy Policy to learn more. By continuing to use the site, you agree to this use of cookies and data.
  • In Deutschland
  • Länderverzeichnis
  • Für 7 Tage
  • Wassertemperatur
  • Satellitenkarten
  • Wetterkarte
  • Widgets
  • user-avatar
    Anmelden

    Stündliche Wetter Namib-Naukluft Park

    Heute, 17 November, Samstag

    Zeit Temperatur Niederschläge Wind Luftdruck Luftfeuchtigkeit
    00:00 +33°C° 0 mm 4 m/S 703 mmHg 18%
    01:00 +31°C° 0 mm 3 m/S 703 mmHg 19%
    02:00 +30°C° 0 mm 3 m/S 703 mmHg 20%
    03:00 +30°C° 0 mm 2 m/S 703 mmHg 22%
    04:00 +29°C° 0 mm 2 m/S 702 mmHg 23%
    05:00 +31°C° 0 mm 3 m/S 703 mmHg 19%
    06:00 +34°C° 0 mm 4 m/S 703 mmHg 16%
    07:00 +36°C° 0 mm 5 m/S 704 mmHg 12%
    08:00 +39°C° 0 mm 5 m/S 704 mmHg 11%
    09:00 +41°C° 0 mm 5 m/S 704 mmHg 10%
    10:00 +44°C° 0 mm 6 m/S 704 mmHg 9%
    11:00 +43°C° 0 mm 5 m/S 704 mmHg 9%
    12:00 +43°C° 0 mm 5 m/S 703 mmHg 9%
    13:00 +45°C° 0 mm 5 m/S 703 mmHg 9%
    14:00 +44°C° 0 mm 6 m/S 703 mmHg 10%
    15:00 +43°C° 0 mm 7 m/S 702 mmHg 12%
    16:00 +41°C° 0 mm 8 m/S 702 mmHg 13%
    17:00 +39°C° 0 mm 7 m/S 702 mmHg 15%
    18:00 +36°C° 0 mm 6 m/S 702 mmHg 17%
    19:00 +34°C° 0 mm 5 m/S 702 mmHg 20%
    20:00 +34°C° 0 mm 4 m/S 702 mmHg 21%
    21:00 +33°C° 0 mm 3 m/S 703 mmHg 23%
    22:00 +31°C° 0 mm 2 m/S 703 mmHg 24%
    23:00 +30°C° 0 mm 2 m/S 703 mmHg 26%

    Morgen, 18 November, Sonntag

    Zeit Temperatur Niederschläge Wind Luftdruck Luftfeuchtigkeit
    00:00 +30°C° 0 mm 2 m/S 703 mmHg 28%
    01:00 +29°C° 0 mm 2 m/S 702 mmHg 29%
    02:00 +28°C° 0 mm 2 m/S 702 mmHg 33%
    03:00 +27°C° 0 mm 2 m/S 702 mmHg 36%
    04:00 +26°C° 0 mm 3 m/S 701 mmHg 40%
    05:00 +25°C° 0 mm 2 m/S 701 mmHg 41%
    06:00 +25°C° 0 mm 2 m/S 702 mmHg 42%
    07:00 +25°C° 0 mm 2 m/S 702 mmHg 43%
    08:00 +27°C° 0 mm 2 m/S 702 mmHg 37%
    09:00 +30°C° 0 mm 3 m/S 703 mmHg 31%
    10:00 +33°C° 0 mm 3 m/S 703 mmHg 25%
    11:00 +35°C° 0 mm 4 m/S 703 mmHg 23%
    12:00 +36°C° 0 mm 5 m/S 702 mmHg 20%
    13:00 +38°C° 0 mm 6 m/S 702 mmHg 18%
    14:00 +38°C° 0 mm 7 m/S 702 mmHg 18%
    15:00 +36°C° 0 mm 7 m/S 701 mmHg 19%
    16:00 +35°C° 0 mm 7 m/S 701 mmHg 19%
    17:00 +33°C° 0 mm 6 m/S 701 mmHg 23%
    18:00 +30°C° 0 mm 5 m/S 701 mmHg 28%
    19:00 +28°C° 0 mm 5 m/S 701 mmHg 32%
    20:00 +27°C° 0 mm 4 m/S 702 mmHg 34%
    21:00 +26°C° 0 mm 3 m/S 702 mmHg 37%
    22:00 +25°C° 0 mm 2 m/S 702 mmHg 39%
    23:00 +24°C° 0 mm 2 m/S 702 mmHg 42%

    übermorgen, 19 November, Montag

    Zeit Temperatur Niederschläge Wind Luftdruck Luftfeuchtigkeit
    00:00 +23°C° 0 mm 2 m/S 701 mmHg 46%
    01:00 +21°C° 0 mm 2 m/S 701 mmHg 49%
    02:00 +21°C° 0 mm 2 m/S 701 mmHg 50%
    03:00 +21°C° 0 mm 2 m/S 700 mmHg 50%
    04:00 +21°C° 0 mm 2 m/S 700 mmHg 51%
    05:00 +21°C° 0 mm 2 m/S 701 mmHg 51%
    06:00 +21°C° 0 mm 2 m/S 701 mmHg 51%
    07:00 +21°C° 0 mm 3 m/S 702 mmHg 51%
    08:00 +24°C° 0 mm 3 m/S 702 mmHg 45%
    09:00 +26°C° 0 mm 3 m/S 702 mmHg 39%
    10:00 +27°C° 0 mm 3 m/S 703 mmHg 33%
    11:00 +29°C° 0 mm 4 m/S 703 mmHg 29%
    12:00 +30°C° 0 mm 5 m/S 702 mmHg 25%
    13:00 +33°C° 0 mm 6 m/S 702 mmHg 21%
    14:00 +32°C° 0 mm 7 m/S 702 mmHg 23%
    15:00 +30°C° 0 mm 7 m/S 702 mmHg 25%
    16:00 +31°C° 0 mm 8 m/S 701 mmHg 26%
    17:00 +28°C° 0 mm 8 m/S 702 mmHg 30%
    18:00 +26°C° 0 mm 7 m/S 702 mmHg 34%
    19:00 +23°C° 0 mm 6 m/S 702 mmHg 38%
    20:00 +23°C° 0 mm 6 m/S 702 mmHg 39%
    21:00 +22°C° 0 mm 5 m/S 703 mmHg 41%
    22:00 +21°C° 0 mm 4 m/S 703 mmHg 43%
    23:00 +21°C° 0 mm 3 m/S 702 mmHg 46%

    20 November, Dienstag

    Zeit Temperatur Niederschläge Wind Luftdruck Luftfeuchtigkeit
    00:00 +20°C° 0 mm 3 m/S 702 mmHg 50%
    01:00 +19°C° 0 mm 2 m/S 701 mmHg 53%
    02:00 +18°C° 0 mm 2 m/S 701 mmHg 56%
    03:00 +18°C° 0 mm 2 m/S 701 mmHg 58%
    04:00 +18°C° 0 mm 1 m/S 701 mmHg 60%
    05:00 +19°C° 0 mm 1 m/S 701 mmHg 56%
    06:00 +20°C° 0 mm 1 m/S 702 mmHg 52%
    07:00 +21°C° 0 mm 1 m/S 702 mmHg 48%
    08:00 +23°C° 0 mm 2 m/S 702 mmHg 39%
    09:00 +26°C° 0 mm 2 m/S 703 mmHg 30%
    10:00 +28°C° 0 mm 3 m/S 703 mmHg 21%
    11:00 +29°C° 0 mm 4 m/S 703 mmHg 19%
    12:00 +32°C° 0 mm 4 m/S 702 mmHg 18%
    13:00 +33°C° 0 mm 5 m/S 702 mmHg 16%
    14:00 +33°C° 0 mm 6 m/S 702 mmHg 19%
    15:00 +32°C° 0 mm 7 m/S 701 mmHg 21%
    16:00 +32°C° 0 mm 7 m/S 701 mmHg 24%
    17:00 +29°C° 0 mm 7 m/S 701 mmHg 30%
    18:00 +27°C° 0 mm 7 m/S 701 mmHg 36%
    19:00 +26°C° 0 mm 6 m/S 701 mmHg 42%
    20:00 +25°C° 0 mm 5 m/S 702 mmHg 45%
    21:00 +23°C° 0 mm 4 m/S 702 mmHg 48%
    22:00 +22°C° 0 mm 3 m/S 702 mmHg 51%
    23:00 +23°C° 0 mm 2 m/S 702 mmHg 53%

    21 November, Mittwoch

    Zeit Temperatur Niederschläge Wind Luftdruck Luftfeuchtigkeit
    00:00 +21°C° 0 mm 2 m/S 701 mmHg 55%
    01:00 +21°C° 0 mm 1 m/S 701 mmHg 58%
    02:00 +21°C° 0 mm 1 m/S 700 mmHg 57%
    03:00 +21°C° 0 mm 1 m/S 700 mmHg 56%
    04:00 +21°C° 0 mm 1 m/S 700 mmHg 55%
    05:00 +23°C° 0 mm 2 m/S 701 mmHg 50%
    06:00 +24°C° 0 mm 2 m/S 701 mmHg 44%
    07:00 +25°C° 0 mm 3 m/S 702 mmHg 39%
    08:00 +28°C° 0 mm 3 m/S 702 mmHg 32%
    09:00 +30°C° 0 mm 3 m/S 702 mmHg 26%
    10:00 +33°C° 0 mm 3 m/S 703 mmHg 20%
    11:00 +34°C° 0 mm 4 m/S 702 mmHg 20%
    12:00 +35°C° 0 mm 4 m/S 702 mmHg 19%
    13:00 +36°C° 0 mm 4 m/S 701 mmHg 19%
    14:00 +35°C° 0 mm 5 m/S 701 mmHg 22%
    15:00 +34°C° 0 mm 6 m/S 701 mmHg 25%
    16:00 +33°C° 0 mm 7 m/S 700 mmHg 28%
    17:00 +30°C° 0 mm 6 m/S 700 mmHg 31%
    18:00 +28°C° 0 mm 5 m/S 701 mmHg 34%
    19:00 +27°C° 0 mm 4 m/S 701 mmHg 37%
    20:00 +26°C° 0 mm 3 m/S 701 mmHg 40%
    21:00 +25°C° 0 mm 3 m/S 702 mmHg 44%
    22:00 +24°C° 0 mm 3 m/S 702 mmHg 47%
    23:00 +23°C° 0 mm 2 m/S 701 mmHg 50%

    22 November, Donnerstag

    Zeit Temperatur Niederschläge Wind Luftdruck Luftfeuchtigkeit
    00:00 +21°C° 0 mm 2 m/S 701 mmHg 54%
    01:00 +20°C° 0 mm 2 m/S 700 mmHg 57%
    02:00 +21°C° 0 mm 1 m/S 700 mmHg 59%
    03:00 +20°C° 0 mm 1 m/S 700 mmHg 60%
    04:00 +20°C° 0 mm 1 m/S 700 mmHg 62%
    05:00 +21°C° 0 mm 1 m/S 700 mmHg 59%
    06:00 +21°C° 0 mm 1 m/S 700 mmHg 56%
    07:00 +22°C° 0 mm 1 m/S 701 mmHg 52%
    08:00 +24°C° 0 mm 2 m/S 701 mmHg 45%
    09:00 +27°C° 0 mm 3 m/S 701 mmHg 37%
    10:00 +29°C° 0 mm 3 m/S 701 mmHg 30%
    11:00 +30°C° 0 mm 4 m/S 701 mmHg 29%
    12:00 +32°C° 0 mm 5 m/S 701 mmHg 28%
    13:00 +33°C° 0 mm 6 m/S 701 mmHg 27%
    14:00 +32°C° 0 mm 6 m/S 700 mmHg 29%
    15:00 +30°C° 0 mm 6 m/S 700 mmHg 30%
    16:00 +29°C° 0 mm 6 m/S 700 mmHg 32%
    17:00 +27°C° 0 mm 5 m/S 700 mmHg 36%
    18:00 +26°C° 0 mm 4 m/S 701 mmHg 40%
    19:00 +24°C° 0 mm 3 m/S 701 mmHg 44%
    20:00 +22°C° 0 mm 3 m/S 701 mmHg 47%
    21:00 +21°C° 0 mm 2 m/S 701 mmHg 51%
    22:00 +20°C° 0 mm 2 m/S 702 mmHg 55%
    23:00 +20°C° 0 mm 2 m/S 701 mmHg 59%
    Mehr zeigen